Location: Newark
(34.9500°N, 139.9667°E)
Time: 18:09:54
(UTC+00:00)

A-11 Canister half - All Passes

Search period start: 05 December 2019 00:00
Search period end: 15 December 2019 00:00
Orbit: 1515 x 1685 km, 47.2° (Epoch: 05 December)

Date Brightness Start Highest point End Pass type
(mag) Time Alt. Az. Time Alt. Az. Time Alt. Az.
05 Dec - 02:02:48 10° SSW 02:11:11 36° SE 02:19:50 10° ENE daylight
05 Dec - 04:05:53 10° WSW 04:15:35 77° NNW 04:25:42 10° NE daylight
05 Dec - 06:12:37 10° W 06:21:55 43° N 06:31:27 10° ENE daylight
05 Dec - 08:19:24 10° WNW 08:29:03 47° NNE 08:38:47 10° E visible
05 Dec - 10:24:46 10° NW 10:34:59 86° SW 10:45:08 10° SE visible
05 Dec - 12:31:15 10° WNW 12:39:06 26° SW 12:46:52 10° S visible
06 Dec - 01:40:09 10° S 01:48:20 33° SE 01:56:44 10° ENE daylight
06 Dec - 03:42:57 10° WSW 03:52:38 81° NNW 04:02:43 10° NE daylight
06 Dec - 05:49:34 10° W 05:58:51 44° N 06:08:24 10° ENE daylight
06 Dec - 07:56:25 10° WNW 08:06:00 46° NNE 08:15:41 10° E visible
06 Dec - 10:01:48 10° NW 10:12:02 89° SW 10:22:12 10° SE visible
06 Dec - 12:08:05 10° WNW 12:16:14 28° SW 12:24:19 10° S visible
07 Dec - 01:17:34 10° S 01:25:29 31° SE 01:33:38 10° ENE daylight
07 Dec - 03:20:01 10° SW 03:29:41 84° NW 03:39:44 10° NE daylight
07 Dec - 05:26:31 10° W 05:35:48 44° NNW 05:45:22 10° ENE daylight
07 Dec - 07:33:24 10° WNW 07:42:56 45° NNE 07:52:36 10° E daylight
07 Dec - 09:38:51 10° NW 09:49:04 87° NE 09:59:15 10° SE visible
07 Dec - 11:44:57 10° WNW 11:53:21 31° SW 12:01:43 10° S visible
08 Dec - 00:55:00 10° S 01:02:39 28° SE 01:10:30 10° ENE daylight
08 Dec - 02:57:07 10° SW 03:06:44 88° NW 03:16:46 10° NE daylight
08 Dec - 05:03:27 10° W 05:12:45 45° NNW 05:22:20 10° ENE daylight
08 Dec - 07:10:25 10° WNW 07:19:52 44° NNE 07:29:29 10° E daylight
08 Dec - 09:15:54 10° NW 09:26:06 83° NE 09:36:17 10° ESE visible
08 Dec - 11:21:50 10° WNW 11:30:29 33° SW 11:39:06 10° S visible
09 Dec - 00:32:28 10° S 00:39:48 26° SE 00:47:20 10° ENE daylight
09 Dec - 02:34:13 10° SW 02:43:47 88° SE 02:53:47 10° NE daylight
09 Dec - 04:40:25 10° W 04:49:42 46° NNW 04:59:18 10° ENE daylight
09 Dec - 06:47:25 10° WNW 06:56:49 43° N 07:06:23 10° E daylight
09 Dec - 08:52:56 10° NW 09:03:07 80° NE 09:13:19 10° ESE visible
09 Dec - 10:58:45 10° WNW 11:07:36 36° SW 11:16:27 10° S visible
10 Dec - 00:09:58 10° S 00:16:59 24° SE 00:24:09 10° ENE daylight
10 Dec - 02:11:20 10° SW 02:20:52 84° SE 02:30:49 10° NE daylight
10 Dec - 04:17:22 10° W 04:26:40 47° NNW 04:36:17 10° ENE daylight
10 Dec - 06:24:25 10° WNW 06:33:45 43° N 06:43:16 10° E daylight
10 Dec - 08:30:00 10° NW 08:40:08 76° NNE 08:50:20 10° ESE visible
10 Dec - 10:35:41 10° WNW 10:44:44 38° SW 10:53:46 10° SSE visible
10 Dec - 23:47:31 10° S 23:54:09 22° SE 00:00:55 10° E daylight
11 Dec - 01:48:28 10° SW 01:57:57 80° SE 02:07:50 10° ENE daylight
11 Dec - 03:54:20 10° W 04:03:38 48° NNW 04:13:16 10° NE daylight
11 Dec - 06:01:25 10° WNW 06:10:41 42° N 06:20:10 10° ENE daylight
11 Dec - 08:07:03 10° NW 08:17:09 73° NNE 08:27:20 10° ESE visible
11 Dec - 10:12:37 10° WNW 10:21:50 41° SW 10:31:03 10° SSE visible
11 Dec - 23:25:07 10° SSE 23:31:20 20° SE 23:37:39 10° E daylight
12 Dec - 01:25:37 10° SW 01:35:02 75° SE 01:44:51 10° ENE daylight
12 Dec - 03:31:19 10° W 03:40:36 50° NNW 03:50:15 10° NE daylight
12 Dec - 05:38:24 10° WNW 05:47:37 41° N 05:57:04 10° ENE daylight
12 Dec - 07:44:06 10° NW 07:54:09 70° NNE 08:04:19 10° ESE visible
12 Dec - 09:49:35 10° WNW 09:58:56 44° SW 10:08:19 10° SSE visible
12 Dec - 23:02:47 10° SSE 23:08:30 18° ESE 23:14:19 10° E daylight
13 Dec - 01:02:46 10° SW 01:12:08 71° SE 01:21:52 10° ENE daylight
13 Dec - 03:08:17 10° W 03:17:35 51° NNW 03:27:15 10° NE daylight
13 Dec - 05:15:24 10° WNW 05:24:34 41° N 05:33:58 10° ENE daylight
13 Dec - 07:21:10 10° NW 07:31:10 67° NNE 07:41:18 10° ESE daylight
13 Dec - 09:26:34 10° WNW 09:36:02 47° SW 09:45:33 10° SSE visible
13 Dec - 22:40:33 10° SSE 22:45:42 16° ESE 22:50:55 10° E daylight
14 Dec - 00:39:56 10° SW 00:49:14 67° SE 00:58:53 10° ENE daylight
14 Dec - 02:45:16 10° W 02:54:34 53° NNW 03:04:15 10° NE daylight
14 Dec - 04:52:22 10° WNW 05:01:30 41° N 05:10:52 10° ENE daylight
14 Dec - 06:58:13 10° NW 07:08:09 64° NNE 07:18:15 10° ESE daylight
14 Dec - 09:03:33 10° WNW 09:13:08 50° SW 09:22:47 10° SSE visible
14 Dec - 22:18:25 10° SSE 22:22:53 14° ESE 22:27:23 10° E daylight
